STARLINK-4138, 53535

Orbit data source: Space-Track

STARLINK-4138, 53535 is a payload satellite owned by SpaceX/Seattle (US) in LEO that was launched on Fri, 19 Aug 2022 UTC via an FALCON 9 launch vehicle from the Air Force Eastern Test Range (AFETR). Payload-class satellites include a variety of spacecraft equipped with specific instruments for various scientific and technological missions. These include communications satellites like Starlink; space stations such as the ISS; scientific satellites like the Hubble; Earth observation satellites from companies like Planet Labs, Umbra, and HawkEye 360; GPS; miniature CubeSats for education and research; and military/defense satellites.

Loading next visibility...
Identifier
53535, 2022-101J
Orbit
LEO
Country
Flag of USUS
Related business
Manufacturer
SpaceX/Seattle
Mission
Operational Commercial Communications
Bus & Motor
STARLINK, Unknown motor
Mass
300 kg wet, ~290 kg dry
Launch date (UTC)
2022-08-19 (4 years ago)
Launch vehicle
FALCON 9
Launch site
Air Force Eastern Test Range (AFETR)
Object type
Payload
Rocket body
Debris
Shape & HBR
Box + 1 Pan, 10.1 m
Radar Cross Section
13.562 m², Large (>1 m²)

Expand to show TLE details & history
Last TLE update: 3 days ago

TLE from 3 days ago
0 STARLINK-4138
1 53535U 22101J   26170.73773310  .00000187  00000-0  29821-4 0  9996
2 53535  53.1600 335.8974 0000642  50.1980 309.9068 15.08836582211579
Epoch: 2026-06-19T17:42Z
TLE epoch observation values (Epoch: 2026-06-19T17:42:20.139Z)
Latitude
-0.00003°
Longitude
162.35106°
Altitude
540.36 km
Speed
7.594 km/s
True Right ascension
22h 23m 35s
True Declination
0° 00' 00"
Sunlit
Object was in daylight at epoch
Visualization orbit readout
Latitude
Unknown
Longitude
Unknown
Altitude
Unknown
Speed
Unknown
Apparent Right ascension
Unknown
Apparent Declination
Unknown
Sunlit
N/A
Visualization observer readout
Local Sidereal Time
21:26:09
Azimuth
Unknown
Elevation
Unknown
Doppler factor
Unknown
Orbital elements
Apogee altitude
540.452 km
Perigee altitude
539.564 km
Semi-major axis
6,918.145 km
Eccentricity
0.00006
Inclination
53.16°
RAAN
335.8974°
Arg. of periapsis
50.198°
True anomaly
309.90116°
Mean anomaly
309.9068°
Eccentric anomaly
309.90398°
Mean motion
3.77189 °/min
Orbital period
95.44 mins
BSTAR
0.000029821
Loading maneuver chart data...
Computing Atmospheric mass density...
Loading historical data...
Loading historical data...
Loading historical data...
Loading historical data...
Loading historical data...
Loading historical data...
Loading historical data...

Documentation

Showing up to 5 results
|